Flag for Canada Weather past 2 weeks in Granby, Quebec, Canada

Now
46 °F

Overcast.


Feels Like: 43 °F
Forecast: 41 / 46 °F
Wind: 7 mph from Northeast

Location: Saint Hubert Airport

Current Time: Oct 24, 2014 at 11:08:10 AM

Latest Report: Oct 24, 2014 at 10:00 AM


Visibility: 9 mi

Pressure: 29.90 "Hg

Humidity: 87%

Dew point: 43 °F

Location of GranbyLocation

Historic Weather in Granby — Graph

°F

Granby temperature yesterday

Maximum temperature yesterday: 46 °F (at 2:00 PM)
Minimum temperature yesterday: 43 °F (at 8:00 PM)
Average temperature yesterday: 45 °F

Past Weeks' High & Low Weather Summary

 TemperatureHumidityPressure
High75 °F (Oct 14, 2:00 PM)94% (Oct 16, 1:03 AM)30.30 "Hg (Oct 16, 1:03 AM)
Low32 °F (Oct 13, 7:00 AM)41% (Oct 12, 4:00 PM)29.45 "Hg (Oct 18, 2:00 PM)
Average51 °F73%29.94 "Hg
* Reported Oct 9 10:00 AM — Oct 24 10:00 AM, Granby, Weather by CustomWeather, © 2014

Note: Actual official high and low records may vary slightly from our data, if they occured in-between our weather recording intervals... More about our weather records

Advertising

Granby weather history for previous 24 hours

 ConditionsComfort  
Time TempWeatherWind HumidityBarometerVisibility
10:00 AM
Oct 24
46 °FOvercast.7 mph87%29.90 "Hg9 mi
9:00 AM46 °FOvercast.5 mph82%29.89 "Hg9 mi
8:00 AM45 °FLight rain. Overcast.6 mph93%29.90 "Hg9 mi
7:00 AM45 °FLight rain. Overcast.7 mph87%29.90 "Hg9 mi
6:02 AM45 °FOvercast.9 mph81%29.90 "Hg9 mi
5:00 AM45 °FLight rain. Overcast.8 mph87%29.90 "Hg9 mi
4:00 AM45 °FOvercast.15 mph81%29.89 "Hg9 mi
3:59 AM45 °FOvercast.15 mph81%29.90 "Hg9 mi
3:00 AM46 °FOvercast.12 mph76%29.89 "Hg9 mi
2:00 AM45 °FOvercast.9 mph81%29.91 "Hg9 mi
1:00 AM45 °FOvercast.12 mph81%29.91 "Hg9 mi
12:58 AM45 °FMostly cloudy.14 mph81%29.92 "Hg9 mi
12:00 AM45 °FOvercast.15 mph81%29.93 "Hg9 mi
11:00 PM
Oct 23
45 °FMostly cloudy.18 mph81%29.95 "Hg9 mi
10:04 PM45 °FMostly cloudy.14 mph87%29.96 "Hg9 mi
9:00 PM45 °FLight rain. Fog.16 mph87%29.98 "Hg4 mi
8:51 PM45 °FLight rain. Fog.18 mph87%29.98 "Hg5 mi
8:00 PM43 °FLight rain. Fog.16 mph93%29.99 "Hg3 mi
7:04 PM45 °FLight rain. Fog.17 mph87%30.00 "Hg6 mi
6:00 PM45 °FLight rain. Overcast.17 mph87%29.99 "Hg9 mi
5:00 PM45 °FLight rain. More clouds than sun.16 mph87%30.00 "Hg9 mi
4:00 PM45 °FRain. More clouds than sun.21 mph87%29.99 "Hg7 mi
3:02 PM45 °FRain. Mostly cloudy.13 mph87%30.01 "Hg9 mi
2:00 PM46 °FLight rain. More clouds than sun.17 mph87%30.01 "Hg6 mi
1:00 PM45 °FLight rain. Overcast.17 mph87%30.02 "Hg7 mi
12:00 PM45 °FOvercast.18 mph87%30.05 "Hg9 mi
11:00 AM45 °FOvercast.17 mph81%30.07 "Hg9 mi
Weather by CustomWeather, © 2014

See weather overviewHow to use our weather pages